TimeCET,TemperatureF,Dew PointF,Humidity,Sea Level PressureIn,VisibilityMPH,Wind Direction,Wind SpeedMPH,Gust SpeedMPH,PrecipitationIn,Events,Conditions,WindDirDegrees,DateUTC
12:00 AM,53.6,44.6,72,30.01,6.2,Variable,3.5,-,N/A,,Overcast,0,2013-11-09 23:00:00
12:30 AM,53.6,44.6,72,30.01,6.2,Calm,Calm,-,N/A,,Overcast,0,2013-11-09 23:30:00
1:00 AM,53.6,46.4,77,30.01,6.2,Variable,3.5,-,N/A,,Overcast,0,2013-11-10 00:00:00
1:30 AM,51.8,46.4,82,30.01,6.2,Variable,1.2,-,N/A,,Overcast,0,2013-11-10 00:30:00
2:00 AM,51.8,44.6,76,30.01,6.2,ESE,3.5,-,N/A,,Overcast,120,2013-11-10 01:00:00
2:30 AM,50.0,44.6,82,30.01,6.2,Calm,Calm,-,N/A,,Mostly Cloudy,0,2013-11-10 01:30:00
3:00 AM,48.2,42.8,82,30.01,6.2,Variable,2.3,-,N/A,,Scattered Clouds,0,2013-11-10 02:00:00
3:30 AM,46.4,44.6,93,30.01,6.2,Variable,2.3,-,N/A,,Unknown,0,2013-11-10 02:30:00
4:00 AM,46.4,42.8,87,29.98,6.2,SE,3.5,-,N/A,,Overcast,130,2013-11-10 03:00:00
4:30 AM,46.4,44.6,93,29.98,6.2,SSE,3.5,-,N/A,,Mostly Cloudy,160,2013-11-10 03:30:00
5:00 AM,48.2,44.6,87,29.98,6.2,SSE,5.8,-,N/A,,Overcast,160,2013-11-10 04:00:00
5:30 AM,48.2,44.6,87,29.95,6.2,South,4.6,-,N/A,,Overcast,170,2013-11-10 04:30:00
6:00 AM,48.2,44.6,87,29.95,6.2,South,5.8,-,N/A,,Overcast,170,2013-11-10 05:00:00
6:30 AM,50.0,44.6,82,29.95,6.2,SE,3.5,-,N/A,,Overcast,130,2013-11-10 05:30:00
7:00 AM,51.8,44.6,76,29.92,6.2,Variable,2.3,-,N/A,,Overcast,0,2013-11-10 06:00:00
7:30 AM,51.8,44.6,76,29.92,6.2,SE,5.8,-,N/A,,Overcast,130,2013-11-10 06:30:00
8:00 AM,53.6,46.4,77,29.89,6.2,SE,9.2,-,N/A,,Overcast,140,2013-11-10 07:00:00
8:30 AM,53.6,46.4,77,29.89,6.2,SE,5.8,-,N/A,,Overcast,130,2013-11-10 07:30:00
9:00 AM,55.4,48.2,77,29.89,6.2,SSE,6.9,-,N/A,,Overcast,160,2013-11-10 08:00:00
9:30 AM,55.4,48.2,77,29.86,6.2,South,6.9,-,N/A,,Overcast,180,2013-11-10 08:30:00
10:00 AM,59.0,50.0,72,29.86,6.2,SW,8.1,-,N/A,,Overcast,220,2013-11-10 09:00:00
10:30 AM,59.0,50.0,72,29.86,6.2,SW,10.4,-,N/A,,Overcast,230,2013-11-10 09:30:00
11:00 AM,60.8,50.0,68,29.86,6.2,WSW,9.2,-,N/A,,Overcast,240,2013-11-10 10:00:00
11:30 AM,60.8,51.8,72,29.86,6.2,West,8.1,-,N/A,,Mostly Cloudy,260,2013-11-10 10:30:00
12:00 PM,59.0,51.8,77,29.89,6.2,North,13.8,-,N/A,,Mostly Cloudy,360,2013-11-10 11:00:00
12:30 PM,57.2,50.0,77,29.89,6.2,North,8.1,-,N/A,,Overcast,10,2013-11-10 11:30:00
1:00 PM,59.0,50.0,72,29.89,6.2,North,6.9,-,N/A,,Overcast,350,2013-11-10 12:00:00
1:30 PM,60.8,48.2,63,29.89,6.2,North,12.7,-,N/A,,Mostly Cloudy,360,2013-11-10 12:30:00
2:00 PM,59.0,48.2,67,29.86,6.2,North,11.5,-,N/A,,Mostly Cloudy,360,2013-11-10 13:00:00
2:30 PM,59.0,46.4,63,29.89,6.2,North,13.8,-,N/A,,Unknown,350,2013-11-10 13:30:00
3:00 PM,60.8,48.2,63,29.86,6.2,NNW,11.5,-,N/A,,Unknown,340,2013-11-10 14:00:00
3:30 PM,60.8,48.2,63,29.86,6.2,NW,10.4,-,N/A,,Scattered Clouds,320,2013-11-10 14:30:00
4:00 PM,59.0,48.2,67,29.89,6.2,North,12.7,-,N/A,,Mostly Cloudy,350,2013-11-10 15:00:00
4:30 PM,55.4,44.6,67,29.92,6.2,North,21.9,33.4,N/A,,Mostly Cloudy,10,2013-11-10 15:30:00
5:00 PM,53.6,42.8,67,29.95,6.2,North,21.9,42.6,N/A,,Overcast,10,2013-11-10 16:00:00
5:30 PM,51.8,41.0,67,29.95,6.2,North,20.7,-,N/A,,Unknown,10,2013-11-10 16:30:00
6:00 PM,51.8,39.2,62,29.98,6.2,North,25.3,39.1,N/A,,Unknown,360,2013-11-10 17:00:00
6:30 PM,50.0,39.2,66,29.98,6.2,North,21.9,34.5,N/A,,Unknown,360,2013-11-10 17:30:00
7:00 PM,50.0,37.4,62,30.01,6.2,North,20.7,-,N/A,,Unknown,350,2013-11-10 18:00:00
7:30 PM,50.0,37.4,62,30.01,6.2,NNW,19.6,-,N/A,,Unknown,340,2013-11-10 18:30:00
8:00 PM,50.0,35.6,58,30.04,6.2,North,23.0,35.7,N/A,,Unknown,350,2013-11-10 19:00:00
8:30 PM,50.0,32.0,50,30.01,6.2,North,27.6,40.3,N/A,,Unknown,350,2013-11-10 19:30:00
9:00 PM,50.0,32.0,50,30.04,6.2,North,27.6,43.7,N/A,,Unknown,360,2013-11-10 20:00:00
9:30 PM,48.2,32.0,54,30.04,6.2,North,25.3,38.0,N/A,,Unknown,360,2013-11-10 20:30:00
10:00 PM,48.2,32.0,54,30.04,6.2,North,29.9,44.9,N/A,,Unknown,360,2013-11-10 21:00:00
10:30 PM,48.2,32.0,54,30.06,6.2,North,27.6,40.3,N/A,,Unknown,360,2013-11-10 21:30:00
11:00 PM,46.4,35.6,66,30.06,6.2,North,29.9,48.3,N/A,,Unknown,360,2013-11-10 22:00:00
11:30 PM,46.4,35.6,66,30.06,6.2,North,28.8,41.4,N/A,,Unknown,360,2013-11-10 22:30:00